Tracking 17694 objects as of 27-May-2016
HD Live streaming from Space Station
objects crossing your sky now

SL-14 DEB

Track SL-14 DEB now!
10-day predictions


NORAD ID: 19450
Int'l Code: 1978-100AH
Perigee: 1,686.1 km
Apogee: 1,707.8 km
Inclination: 82.5 °
Period: 120.2 minutes
Semi major axis: 8067 km
RCS: 0.0566 m2 (small)
Launch date: October 26, 1978
Source: Commonwealth of Independent States (former USSR) (CIS)
Launch site: PLESETSK MISSILE AND SPACE COMPLEX (PKMTR)

Note: This is SATELLITE DEBRIS
Your satellite tracking list
Your tracking list is empty





NASA's NSSDC Master Catalog

Two Line Element Set (TLE):
1 19450U 78100AH  16147.17187644  .00000050  00000-0  51780-3 0  9991
2 19450  82.5482 307.2638 0013425  66.3658 344.3769 11.98068381218729
Source of the keplerian elements: AFSPC

N2YO: 655